FW2547 Weather Reports


Display with metric or nautical units.
time (UTC)temp
F
wind
direction
speed
MPH
gust
MPH
rain 1hr
in
rain 24hr
in
rain mn
in
humidity
%
barometer
mb
20221207041510 60 311 0.0 3.0 0.00 0.00 0.00 56 1015.0
20221207040010 60 288 5.0 8.0 0.00 0.00 0.00 56 1015.1
20221207034514 61 293 5.0 9.0 0.00 0.00 0.00 54 1015.1
20221207033009 62 286 4.0 8.0 0.00 0.00 0.00 54 1014.9
20221207031513 62 286 4.0 7.0 0.00 0.00 0.00 53 1014.8
20221207030015 63 310 4.0 6.0 0.00 0.00 0.00 52 1014.7
20221207024507 63 301 2.0 4.0 0.00 0.00 0.00 52 1014.7
20221207023007 64 301 1.0 3.0 0.00 0.00 0.00 51 1014.3
20221207021507 64 301 0.0 2.0 0.00 0.00 0.00 50 1014.2
20221207020005 64 301 0.0 3.0 0.00 0.00 0.00 49 1014.1
20221207014505 64 301 0.0 1.0 0.00 0.00 0.00 48 1013.9
20221207013004 64 301 0.0 3.0 0.00 0.00 0.00 49 1013.9
20221207011504 65 301 0.0 2.0 0.00 0.00 0.00 49 1013.5
20221207010004 65 301 1.0 3.0 0.00 0.00 0.00 47 1013.2
20221207004503 66 301 1.0 3.0 0.00 0.00 0.00 46 1013.3
20221207003004 66 301 1.0 3.0 0.00 0.00 0.00 45 1013.2
20221207001501 67 301 0.0 2.0 0.00 0.00 0.00 44 1013.1
20221207000002 67 301 1.0 2.0 0.00 0.00 0.00 43 1013.1
20221206234600 68 301 1.0 5.0 0.00 0.00 0.00 42 1012.9
20221206233100 69 301 1.0 6.0 0.00 0.00 0.00 41 1012.9
20221206231559 69 287 4.0 9.0 0.00 0.00 0.00 41 1012.7
20221206230059 69 289 4.0 10.0 0.00 0.00 0.00 40 1012.7
20221206224558 69 276 5.0 12.0 0.00 0.00 0.00 40 1012.8
20221206223057 69 277 12.0 15.0 0.00 0.00 0.00 39 1012.7
20221206221557 69 288 13.0 19.0 0.00 0.00 0.00 40 1012.6
20221206220058 70 251 13.0 18.0 0.00 0.00 0.00 38 1012.6
20221206214556 69 273 12.0 22.0 0.00 0.00 0.00 39 1012.7
20221206213054 69 294 11.0 19.0 0.00 0.00 0.00 38 1012.9
20221206211555 69 300 10.0 18.0 0.00 0.00 0.00 41 1012.9
20221206210054 69 291 14.0 21.0 0.00 0.00 0.00 40 1013.1
20221206204607 69 210 10.0 21.0 0.00 0.00 0.00 36 1013.1
20221206203050 69 267 10.0 21.0 0.00 0.00 0.00 40 1013.1
20221206201547 69 254 8.0 16.0 0.00 0.00 0.00 43 1013.1
20221206200052 68 292 11.0 19.0 0.00 0.00 0.00 45 1013.3
20221206194543 68 242 5.0 18.0 0.00 0.00 0.00 46 1013.3
20221206193037 66 299 7.0 15.0 0.00 0.00 0.00 50 1013.5
20221206191540 64 333 2.0 11.0 0.00 0.00 0.00 56 1013.7
20221206190031 64 298 4.0 11.0 0.00 0.00 0.00 57 1014.0
20221206184537 63 296 9.0 14.0 0.00 0.00 0.00 57 1014.3
20221206183024 63 311 11.0 14.0 0.00 0.00 0.00 58 1014.9
20221206181519 62 325 7.0 12.0 0.00 0.00 0.00 60 1015.2
20221206180016 62 336 5.0 11.0 0.00 0.00 0.00 60 1015.5
20221206174514 62 294 8.0 15.0 0.00 0.00 0.00 60 1015.6
20221206173008 61 313 8.0 14.0 0.00 0.00 0.00 62 1015.7
20221206171507 60 299 8.0 17.0 0.00 0.00 0.00 63 1015.8
20221206170104 60 297 7.0 12.0 0.00 0.00 0.00 64 1015.7
20221206164555 59 292 6.0 10.0 0.00 0.00 0.00 67 1015.7
20221206163055 58 296 7.0 10.0 0.00 0.00 0.00 68 1015.5
20221206161559 56 279 5.0 9.0 0.00 0.00 0.00 72 1015.6
20221206160045 55 293 5.0 8.0 0.00 0.00 0.00 74 1015.4
20221206154543 54 292 3.0 8.0 0.00 0.00 0.00 76 1014.9
20221206153036 53 284 8.0 10.0 0.00 0.00 0.00 76 1014.7
20221206151535 53 294 6.0 10.0 0.00 0.00 0.00 76 1014.4
20221206150031 53 306 7.0 10.0 0.00 0.00 0.00 77 1014.3
20221206144526 52 318 6.0 9.0 0.00 0.00 0.00 79 1014.4
20221206143022 51 300 3.0 5.0 0.00 0.00 0.00 80 1014.3
20221206141519 51 300 3.0 5.0 0.00 0.00 0.00 80 1014.1
20221206140016 51 300 3.0 8.0 0.00 0.00 0.00 81 1013.8
20221206134512 51 294 4.0 7.0 0.00 0.00 0.00 81 1013.6
20221206133014 51 254 4.0 10.0 0.00 0.00 0.00 81 1013.3
20221206131507 51 290 6.0 10.0 0.00 0.00 0.00 80 1013.0
20221206130005 52 291 7.0 11.0 0.00 0.00 0.00 80 1012.8
20221206124503 52 280 9.0 11.0 0.00 0.00 0.00 79 1012.8
20221206123104 53 298 10.0 12.0 0.00 0.00 0.00 79 1012.4
20221206121600 53 282 8.0 11.0 0.00 0.00 0.00 80 1012.2
20221206120103 53 284 9.0 13.0 0.00 0.00 0.00 79 1012.0
20221206114607 53 288 9.0 14.0 0.00 0.01 0.00 79 1012.0
20221206113053 53 290 9.0 12.0 0.00 0.01 0.00 79 1012.0
20221206111552 53 280 8.0 10.0 0.00 0.01 0.00 78 1012.0
20221206110051 54 301 9.0 12.0 0.00 0.01 0.00 76 1012.0
20221206104549 55 300 9.0 13.0 0.00 0.01 0.00 76 1012.2
20221206103049 54 293 10.0 14.0 0.00 0.01 0.00 78 1012.3
20221206101548 54 275 7.0 11.0 0.00 0.01 0.00 80 1012.4
20221206100051 53 229 5.0 10.0 0.00 0.01 0.00 81 1012.3
20221206094542 54 269 7.0 10.0 0.00 0.01 0.00 80 1012.2
20221206093057 54 242 4.0 9.0 0.00 0.01 0.00 80 1012.1
20221206091541 54 286 5.0 9.0 0.00 0.01 0.00 81 1011.8
20221206090047 55 261 7.0 11.0 0.00 0.01 0.00 81 1011.8
20221206084537 55 263 7.0 11.0 0.00 0.01 0.00 80 1011.8
20221206083044 55 266 7.0 10.0 0.00 0.01 0.00 80 1012.0
20221206081528 56 277 5.0 9.0 0.00 0.01 0.00 79 1011.8
20221206080023 57 290 7.0 13.0 0.00 0.01 0.00 78 1011.7
20221206074524 57 296 8.0 11.0 0.00 0.01 0.00 77 1011.7
20221206073018 58 298 4.0 10.0 0.00 0.01 0.00 76 1011.8
20221206071516 58 313 5.0 10.0 0.00 0.01 0.00 77 1011.8
20221206070019 59 290 7.0 11.0 0.00 0.01 0.00 74 1012.1
20221206064515 59 289 6.0 11.0 0.00 0.01 0.01 75 1012.0
20221206063017 59 301 7.0 9.0 0.00 0.01 0.01 75 1012.0
20221206061510 59 301 3.0 5.0 0.00 0.01 0.01 74 1012.0
20221206060014 59 301 4.0 6.0 0.00 0.01 0.01 74 1011.9
20221206054509 60 301 5.0 8.0 0.00 0.01 0.01 74 1011.9
20221206053010 60 301 6.0 10.0 0.00 0.01 0.01 73 1012.1
20221206051508 60 301 6.0 9.0 0.00 0.01 0.01 72 1012.2
20221206050006 60 300 7.0 9.0 0.00 0.06 0.01 72 1012.2
20221206044506 61 304 3.0 10.0 0.00 0.06 0.01 71 1012.1
20221206043007 61 296 4.0 7.0 0.00 0.06 0.01 71 1011.9